When you browse on this site, cookies collect data to enhance your experience and personalize the content and advertising you see.
Visit our Privacy Policy to learn more. By continuing to use the site, you agree to this use of cookies and data.
  • In Latvia
  • List of Countries
  • For 7 days
  • Water Temperature
  • Satellite Maps
  • Weather Map
  • Weather Widgets
  • user-avatar
    Login

    Hourly Weather Barra

    Today, 26 March, Tuesday

    Time Temperature Precipitation Wind Pressure Humidity
    00:00 +26°C° 0.7 mm 1 mps 748 mmHg 96%
    01:00 +26°C° 0.7 mm 1 mps 748 mmHg 96%
    02:00 +26°C° 0.4 mm 1 mps 748 mmHg 96%
    03:00 +26°C° 0.4 mm 1 mps 748 mmHg 96%
    04:00 +26°C° 0 mm 1 mps 748 mmHg 96%
    05:00 +26°C° 0.3 mm 1 mps 748 mmHg 96%
    06:00 +26°C° 0.3 mm 1 mps 748 mmHg 95%
    07:00 +24°C° 0.3 mm 0 mps 748 mmHg 95%
    08:00 +28°C° 0.3 mm 1 mps 748 mmHg 89%
    09:00 +29°C° 0.3 mm 1 mps 748 mmHg 82%
    10:00 +30°C° 0 mm 1 mps 749 mmHg 76%
    11:00 +31°C° 0.3 mm 1 mps 748 mmHg 73%
    12:00 +32°C° 0.3 mm 2 mps 748 mmHg 69%
    13:00 +32°C° 0.3 mm 2 mps 747 mmHg 66%
    14:00 +32°C° 0 mm 2 mps 747 mmHg 67%
    15:00 +31°C° 0 mm 2 mps 746 mmHg 68%
    16:00 +31°C° 0 mm 2 mps 746 mmHg 71%
    17:00 +29°C° 0 mm 2 mps 746 mmHg 78%
    18:00 +28°C° 0 mm 2 mps 747 mmHg 84%
    19:00 +27°C° 0 mm 1 mps 747 mmHg 90%
    20:00 +27°C° 0.1 mm 1 mps 747 mmHg 91%
    21:00 +26°C° 0.1 mm 1 mps 748 mmHg 93%
    22:00 +26°C° 0 mm 1 mps 748 mmHg 94%
    23:00 +26°C° 0.3 mm 1 mps 748 mmHg 95%

    Tomorrow, 27 March, Wednesday

    Time Temperature Precipitation Wind Pressure Humidity
    00:00 +26°C° 0.3 mm 1 mps 748 mmHg 95%
    01:00 +26°C° 0.3 mm 1 mps 747 mmHg 95%
    02:00 +26°C° 0.3 mm 1 mps 747 mmHg 96%
    03:00 +26°C° 0.3 mm 1 mps 747 mmHg 96%
    04:00 +26°C° 0.3 mm 1 mps 747 mmHg 96%
    05:00 +26°C° 0.6 mm 1 mps 747 mmHg 96%
    06:00 +26°C° 0.6 mm 1 mps 747 mmHg 96%
    07:00 +26°C° 0.6 mm 1 mps 747 mmHg 95%
    08:00 +28°C° 0.2 mm 1 mps 747 mmHg 85%
    09:00 +30°C° 0.2 mm 1 mps 747 mmHg 76%
    10:00 +32°C° 0.2 mm 1 mps 748 mmHg 66%
    11:00 +32°C° 0 mm 1 mps 747 mmHg 63%
    12:00 +34°C° 0 mm 2 mps 746 mmHg 61%
    13:00 +34°C° 0 mm 3 mps 746 mmHg 58%
    14:00 +34°C° 0 mm 3 mps 746 mmHg 61%
    15:00 +33°C° 0 mm 3 mps 745 mmHg 63%
    16:00 +33°C° 0 mm 3 mps 745 mmHg 66%
    17:00 +30°C° 0.1 mm 2 mps 745 mmHg 73%
    18:00 +29°C° 0.1 mm 2 mps 745 mmHg 81%
    19:00 +27°C° 0.1 mm 1 mps 745 mmHg 89%
    20:00 +27°C° 0.3 mm 1 mps 746 mmHg 90%
    21:00 +27°C° 0.3 mm 1 mps 746 mmHg 92%
    22:00 +26°C° 0.3 mm 1 mps 746 mmHg 94%
    23:00 +26°C° 0.1 mm 1 mps 746 mmHg 94%

    Day after tomorrow, 28 March, Thursday

    Time Temperature Precipitation Wind Pressure Humidity
    00:00 +26°C° 0.1 mm 1 mps 746 mmHg 95%
    01:00 +26°C° 0.1 mm 1 mps 745 mmHg 96%
    02:00 +26°C° 0.1 mm 1 mps 745 mmHg 96%
    03:00 +26°C° 0.1 mm 1 mps 745 mmHg 96%
    04:00 +25°C° 0.1 mm 1 mps 744 mmHg 97%
    05:00 +26°C° 0 mm 1 mps 745 mmHg 96%
    06:00 +26°C° 0 mm 1 mps 745 mmHg 96%
    07:00 +26°C° 0 mm 1 mps 745 mmHg 95%
    08:00 +28°C° 0.1 mm 1 mps 746 mmHg 86%
    09:00 +30°C° 0.1 mm 1 mps 746 mmHg 77%
    10:00 +32°C° 0.1 mm 1 mps 746 mmHg 67%
    11:00 +32°C° 0.3 mm 2 mps 745 mmHg 68%
    12:00 +32°C° 0.3 mm 2 mps 745 mmHg 68%
    13:00 +33°C° 0.3 mm 3 mps 744 mmHg 68%
    14:00 +33°C° 0.3 mm 3 mps 744 mmHg 71%
    15:00 +31°C° 0.3 mm 3 mps 743 mmHg 73%
    16:00 +31°C° 0.3 mm 3 mps 743 mmHg 76%
    17:00 +29°C° 0.3 mm 3 mps 743 mmHg 81%
    18:00 +28°C° 0.3 mm 3 mps 744 mmHg 87%
    19:00 +27°C° 0.3 mm 2 mps 744 mmHg 93%
    20:00 +27°C° 0.8 mm 2 mps 744 mmHg 93%
    21:00 +27°C° 0.8 mm 1 mps 745 mmHg 94%
    22:00 +27°C° 0.8 mm 1 mps 746 mmHg 95%
    23:00 +27°C° 1.3 mm 1 mps 745 mmHg 95%

    29 March, Friday

    Time Temperature Precipitation Wind Pressure Humidity
    00:00 +26°C° 1.3 mm 1 mps 745 mmHg 96%
    01:00 +24°C° 1.3 mm 0 mps 745 mmHg 96%
    02:00 +26°C° 0.8 mm 1 mps 744 mmHg 97%
    03:00 +26°C° 0.8 mm 1 mps 744 mmHg 97%
    04:00 +26°C° 0.8 mm 1 mps 744 mmHg 98%
    05:00 +26°C° 0.4 mm 1 mps 744 mmHg 97%
    06:00 +26°C° 0.4 mm 1 mps 744 mmHg 97%
    07:00 +26°C° 0.4 mm 1 mps 745 mmHg 97%
    08:00 +27°C° 1.3 mm 2 mps 745 mmHg 91%
    09:00 +28°C° 1.3 mm 2 mps 745 mmHg 86%
    10:00 +30°C° 1.3 mm 2 mps 746 mmHg 80%
    11:00 +30°C° 0.7 mm 3 mps 745 mmHg 80%
    12:00 +30°C° 0.7 mm 3 mps 745 mmHg 80%
    13:00 +30°C° 0.7 mm 3 mps 744 mmHg 80%
    14:00 +29°C° 0.8 mm 3 mps 744 mmHg 82%
    15:00 +29°C° 0.8 mm 3 mps 743 mmHg 83%
    16:00 +29°C° 0.8 mm 3 mps 743 mmHg 85%
    17:00 +28°C° 0.7 mm 3 mps 743 mmHg 88%
    18:00 +27°C° 0.7 mm 3 mps 744 mmHg 91%
    19:00 +27°C° 0.7 mm 2 mps 744 mmHg 94%
    20:00 +26°C° 0.2 mm 2 mps 745 mmHg 94%
    21:00 +26°C° 0.2 mm 2 mps 745 mmHg 95%
    22:00 +26°C° 0.2 mm 2 mps 746 mmHg 95%
    23:00 +26°C° 0.3 mm 2 mps 746 mmHg 95%

    30 March, Saturday

    Time Temperature Precipitation Wind Pressure Humidity
    00:00 +26°C° 0.3 mm 1 mps 745 mmHg 96%
    01:00 +26°C° 0.3 mm 1 mps 745 mmHg 96%
    02:00 +26°C° 0.8 mm 1 mps 745 mmHg 96%
    03:00 +26°C° 0.8 mm 1 mps 744 mmHg 96%
    04:00 +24°C° 0.8 mm 0 mps 744 mmHg 97%
    05:00 +24°C° 0.1 mm 0 mps 745 mmHg 96%
    06:00 +24°C° 0.1 mm 0 mps 745 mmHg 96%
    07:00 +24°C° 0.1 mm 0 mps 746 mmHg 95%
    08:00 +28°C° 0.4 mm 1 mps 746 mmHg 89%
    09:00 +29°C° 0.4 mm 1 mps 746 mmHg 83%
    10:00 +31°C° 0.4 mm 1 mps 746 mmHg 77%
    11:00 +31°C° 0.7 mm 1 mps 746 mmHg 76%
    12:00 +31°C° 0.7 mm 2 mps 745 mmHg 75%
    13:00 +31°C° 0.7 mm 2 mps 744 mmHg 74%
    14:00 +31°C° 0.2 mm 2 mps 744 mmHg 75%
    15:00 +31°C° 0.2 mm 2 mps 744 mmHg 75%
    16:00 +31°C° 0.2 mm 2 mps 743 mmHg 76%
    17:00 +29°C° 1.2 mm 2 mps 744 mmHg 81%
    18:00 +28°C° 1.2 mm 1 mps 744 mmHg 86%
    19:00 +27°C° 1.2 mm 1 mps 745 mmHg 91%
    20:00 +27°C° 1.3 mm 1 mps 745 mmHg 93%
    21:00 +27°C° 1.3 mm 1 mps 746 mmHg 94%
    22:00 +26°C° 1.3 mm 1 mps 746 mmHg 96%
    23:00 +26°C° 0.9 mm 1 mps 746 mmHg 96%

    1 April, Monday

    Time Temperature Precipitation Wind Pressure Humidity
    00:00 +25°C° 0.8 mm 3 mps 748 mmHg 97%
    01:00 +25°C° 0.8 mm 3 mps 747 mmHg 97%
    02:00 +25°C° 1.1 mm 3 mps 747 mmHg 97%
    03:00 +25°C° 1.1 mm 3 mps 747 mmHg 97%
    04:00 +25°C° 1.1 mm 3 mps 747 mmHg 97%
    05:00 +25°C° 0.7 mm 3 mps 747 mmHg 96%
    06:00 +25°C° 0.7 mm 3 mps 748 mmHg 96%
    07:00 +23°C° 0.7 mm 4 mps 748 mmHg 96%
    08:00 +26°C° 0.2 mm 4 mps 748 mmHg 90%
    09:00 +27°C° 0.2 mm 4 mps 749 mmHg 83%
    10:00 +28°C° 0.2 mm 4 mps 749 mmHg 77%
    11:00 +29°C° 0 mm 4 mps 748 mmHg 72%
    12:00 +30°C° 0 mm 4 mps 748 mmHg 67%
    13:00 +32°C° 0 mm 4 mps 747 mmHg 61%
    14:00 +32°C° 0 mm 4 mps 747 mmHg 62%
    15:00 +32°C° 0 mm 4 mps 747 mmHg 63%
    16:00 +30°C° 0 mm 4 mps 746 mmHg 64%
    17:00 +29°C° 0 mm 3 mps 747 mmHg 71%
    18:00 +27°C° 0 mm 3 mps 747 mmHg 77%
    19:00 +26°C° 0 mm 2 mps 747 mmHg 84%
    20:00 +26°C° 0.1 mm 3 mps 748 mmHg 86%
    21:00 +25°C° 0.1 mm 3 mps 748 mmHg 88%
    22:00 +25°C° 0.1 mm 3 mps 748 mmHg 90%
    23:00 +25°C° 0.4 mm 3 mps 748 mmHg 91%
    Show more